FENGYUN 1C DEB

Satellite information

Favourite Embed

Satellite Type and Status

DEBRISIN ORBIT

Key statistics

Satellite FENGYUN 1C DEB at a glance.

Uptime

9613

Days in orbit

Revolutions

≈ 13.9

Per day

Orbit

SSO

Sun Synchronous Orbit

Inclination

99.0

Latest

Satellite identification and parameters

Extended collection of information and parameters for FENGYUN 1C DEB.

Object identification

Identified? True

Debris? True

Object name: FENGYUN 1C DEB

International designator: 1999-025CFB

Object number (NORAD): 31752

Object ID (CCSDS): 31752

Country: PEOPLES REPUBLIC OF CHINA (PRC)

Current information (Y/N): Y

RCS size: SMALL

Orbital parameters

Period: 103.448 minutes

Inclination: 98.9876 deg

SMA: 7299.769 km

Apoapsis: 1183.773 km

Periapsis: 659.496 km

RAAN: 309.4165 deg

Eccentricy: 0.03591048

Argument of periapsis: 283.6043 deg

Mean anomaly: 72.5368 deg

Mean motion: 13.91999421 rev/day

Mean motion (dot): 0.00001606 rev/day2

B* drag term: 0.00076444672 1/REarth

Two-line elements (TLE)

Creation date: Aug. 22, 2025, 9:09 p.m.

Reference frame: TEME

Reference center: EARTH

Epoch: Aug. 21, 2025, 11:19 a.m. UTC

TLE line 0: 0 FENGYUN 1C DEB

TLE line 1: 1 31752U 99025CFB 25233.47203153 .00001606 00000-0 76445-3 0 9995

TLE line 2: 2 31752 98.9876 309.4165 0359105 283.6043 72.5368 13.91999421920149

Live tracking on map

Real-time ground track for satellite FENGYUN 1C DEB.

In-orbit conjunctions

A list of the most updated potential collisions computed for object FENGYUN 1C DEB.

Target Orbit TCA Probability of collision Miss distance Type
DELTA 1 DEB SSO 2024-08-09 09:36:44 0.0001151776 392.0 (m) DEBRIS

Associated space launch

Chinese polar orbiting meteorological satellite

FENGYUN 1C DEB was lifted into orbit during the mission ‘Long March 4B | Feng Yun 1C’, on board a Long March 4B space rocket.

The launch took place on May 10, 1999, 1:33 a.m. from Launch Complex 7.

For more information about the launch, click the button.

Launch to space Long March 4B | Feng Yun 1C
Long March 4B | Feng Yun 1C

Agency: N/A

Status: Launch Successful

Launch date: May 10, 1999, 1:33 a.m. UTC

Rocket: Long March 4B

Launch pad: Launch Complex 7

Location: Taiyuan Satellite Launch Center, People's Republic of China

...

Latest news about this satellite

There are no fresh news available about this satellite. Check back as we update our databases every day.


Newsletter sign-up

Weekly statistics, charts and insights to help you stay on top of the space industry.